Powrót do katalogu

SL-16 R/B

AktywnyLEO
NORAD 31793·ROCKET BODY·🇷🇺 Russia

Wystrzelony Jun 29, 2007 z Baikonur Cosmodrome

Loading…

Następne Przeloty (najbliższe 24 godziny)

TLE

ŚwieżeSource: Space-Track

Epoka: Sep 14, 2026, 14:31 UTC

1 31793U 07029B   26257.60552376 -.00000133  00000-0 -43979-4 0  9992
2 31793  70.9757 135.2619 0002131 279.7484  92.7019 14.14864290992091

Śledź SL-16 R/B w czasie rzeczywistym z AllMySat

Download on the App Store